Location: Góry Miechowskie
(50.3599°N, 20.1803°E)
Time: 02:06:05
(UTC+00:00)

Transit 2A Rocket - Pass Details

Date: 14 September 2024
Orbit: 582 x 908 km, 66.7° (Epoch: 10 October)

Event Time Altitude Azimuth Distance (km) Brightness Sun altitude
Exits shadow 21:58:45 19° 54° (NE) 2,044 7.3 -36.1°
Drops below altitude 10° 22:00:26 10° 47° (NE) 2,603 8.0 -36.2°
Sets 22:03:05 0° 41° (NE) 3,541 8.9 -36.3°
